If you wish to contribute or participate in the discussions about articles you are invited to join SKYbrary as a registered user

 Actions

La Palma Airport

From SKYbrary Wiki

GCLA
Airport
ICAO: GCLA – IATA: SPC
Summary
Name La Palma Airport
Region Europe
Territory Canary Islands ES.gif
Location Villa de Mazo
Serving La Palma
Elevation 32.918 m
108 ft
108 ft32.918 m
Coordinates 28° 37' 29.59" N, 17° 45' 20.35" W
Runways
Designator Length Width Surface ROPS
1/19 2200 m7,217.848 ft
45 m147.638 ft
ASP yes/yes


METAR
Observation GCLA 211100Z 03009G21KT 320V100 9999 FEW040 21/09 Q1021
Station La Palma / Aeropuerto
Date/Time 21 February 2020 11:00:00
Wind direction 30°
Wind speed 09 kts
Lowest cloud amount few clouds
Temperature 21°C
Dew point 9°C
Humidity 46%
QNH 1021 hPa
Weather condition n/a

WX
Tag(s) Volcanic Ash

La Palma Airport

ICAO: GCLA IATA: SPC

Description

International airport serving the island of La Palma.

Climatology

Dry-summer subtropical ”Mediterranean" climate (Köppen climate classification Csa) - characterized by hot, dry summers and mild winters. During the summer, subtropical high pressure cells dominate, making rainfall unlikely except for the occasional thunderstorm. In the winter, periodic storms bring rain (snow at higher elevations).

Maps

Terrain

Loading map...

Airport Layout

Loading map...


Accidents & Serious Incidents at or in vicinity of GCLA

None on SKYbrary